Time,TemperatureF,DewpointF,PressureIn,WindDirection,WindDirectionDegrees,WindSpeedMPH,WindSpeedGustMPH,Humidity,HourlyPrecipIn,Conditions,Clouds,dailyrainin,SoftwareType,DateUTC
2013-02-21 00:02:00,27.1,14.3,30.20,ENE,77,4.0,6.0,58,0.00,,,0.00,Wunderground v.1.15,2013-02-21 06:02:00,
2013-02-21 00:07:00,27.2,14.4,30.20,East,84,5.0,10.0,58,0.00,,,0.00,Wunderground v.1.15,2013-02-21 06:07:00,
2013-02-21 00:13:00,27.2,14.0,30.20,East,80,3.0,6.0,57,0.00,,,0.00,Wunderground v.1.15,2013-02-21 06:13:00,
2013-02-21 00:19:00,27.3,13.7,30.20,NE,55,3.0,6.0,56,0.00,,,0.00,Wunderground v.1.15,2013-02-21 06:19:00,
2013-02-21 00:25:00,27.3,14.5,30.21,North,5,1.0,5.0,58,0.00,,,0.00,Wunderground v.1.15,2013-02-21 06:25:00,
2013-02-21 00:31:00,27.0,13.8,30.21,NE,49,3.0,3.0,57,0.00,,,0.00,Wunderground v.1.15,2013-02-21 06:31:00,
2013-02-21 00:37:00,27.0,13.8,30.21,ENE,68,4.0,5.0,57,0.00,,,0.00,Wunderground v.1.15,2013-02-21 06:37:00,
2013-02-21 00:43:00,27.0,13.8,30.22,ENE,73,3.0,3.0,57,0.00,,,0.00,Wunderground v.1.15,2013-02-21 06:43:00,
2013-02-21 00:49:00,27.1,13.9,30.21,ENE,60,5.0,6.0,57,0.00,,,0.00,Wunderground v.1.15,2013-02-21 06:49:00,
2013-02-21 00:54:00,27.1,13.5,30.21,ENE,63,4.0,4.0,56,0.00,,,0.00,Wunderground v.1.15,2013-02-21 06:54:00,
2013-02-21 00:59:00,27.0,13.8,30.21,North,5,0.0,4.0,57,0.00,,,0.00,Wunderground v.1.15,2013-02-21 06:59:00,
2013-02-21 01:04:00,27.0,13.8,30.21,ENE,76,2.0,3.0,57,0.00,,,0.00,Wunderground v.1.15,2013-02-21 07:04:00,
2013-02-21 01:10:00,26.9,14.1,30.21,ENE,78,3.0,3.0,58,0.00,,,0.00,Wunderground v.1.15,2013-02-21 07:10:00,
2013-02-21 01:16:00,26.7,14.3,30.20,East,84,6.0,7.0,59,0.00,,,0.00,Wunderground v.1.15,2013-02-21 07:16:00,
2013-02-21 01:21:00,26.6,14.6,30.20,ENE,57,5.0,6.0,60,0.00,,,0.00,Wunderground v.1.15,2013-02-21 07:21:00,
2013-02-21 01:27:00,26.5,14.9,30.19,ESE,119,3.0,6.0,61,0.00,,,0.00,Wunderground v.1.15,2013-02-21 07:27:00,
2013-02-21 01:32:00,26.4,14.4,30.20,East,82,5.0,5.0,60,0.00,,,0.00,Wunderground v.1.15,2013-02-21 07:32:00,
2013-02-21 01:38:00,26.3,14.3,30.20,East,90,3.0,5.0,60,0.00,,,0.00,Wunderground v.1.15,2013-02-21 07:38:00,
2013-02-21 01:43:00,26.2,14.6,30.20,ESE,118,4.0,5.0,61,0.00,,,0.00,Wunderground v.1.15,2013-02-21 07:43:00,
2013-02-21 01:49:00,26.1,14.5,30.20,East,83,5.0,5.0,61,0.00,,,0.00,Wunderground v.1.15,2013-02-21 07:49:00,
2013-02-21 01:55:00,26.1,14.1,30.21,East,80,3.0,5.0,60,0.00,,,0.00,Wunderground v.1.15,2013-02-21 07:55:00,
2013-02-21 02:00:00,26.1,14.5,30.21,ESE,109,3.0,3.0,61,0.00,,,0.00,Wunderground v.1.15,2013-02-21 08:00:00,
2013-02-21 02:05:00,26.0,14.4,30.21,East,89,5.0,7.0,61,0.00,,,0.00,Wunderground v.1.15,2013-02-21 08:05:00,
2013-02-21 02:10:00,25.9,15.0,30.21,East,93,5.0,6.0,63,0.00,,,0.00,Wunderground v.1.15,2013-02-21 08:10:00,
2013-02-21 02:15:00,25.9,14.7,30.20,ESE,114,4.0,8.0,62,0.00,,,0.00,Wunderground v.1.15,2013-02-21 08:15:00,
2013-02-21 02:20:00,25.9,14.7,30.21,ESE,102,4.0,4.0,62,0.00,,,0.00,Wunderground v.1.15,2013-02-21 08:20:00,
2013-02-21 02:25:00,25.9,14.7,30.20,ESE,109,4.0,9.0,62,0.00,,,0.00,Wunderground v.1.15,2013-02-21 08:25:00,
2013-02-21 02:30:00,26.0,15.1,30.21,East,101,6.0,7.0,63,0.00,,,0.00,Wunderground v.1.15,2013-02-21 08:30:00,
2013-02-21 02:35:00,26.1,15.6,30.20,SE,131,4.0,8.0,64,0.00,,,0.00,Wunderground v.1.15,2013-02-21 08:35:00,
2013-02-21 02:40:00,26.3,15.8,30.19,ESE,121,5.0,8.0,64,0.00,,,0.00,Wunderground v.1.15,2013-02-21 08:40:00,
2013-02-21 02:45:00,26.4,15.9,30.19,ESE,120,5.0,11.0,64,0.00,,,0.00,Wunderground v.1.15,2013-02-21 08:45:00,
2013-02-21 02:50:00,26.5,16.0,30.20,SE,129,0.0,6.0,64,0.00,,,0.00,Wunderground v.1.15,2013-02-21 08:50:00,
2013-02-21 02:55:00,26.5,15.6,30.20,ESE,111,4.0,8.0,63,0.00,,,0.00,Wunderground v.1.15,2013-02-21 08:55:00,
2013-02-21 03:00:00,26.4,15.9,30.20,ESE,113,3.0,5.0,64,0.00,,,0.00,Wunderground v.1.15,2013-02-21 09:00:00,
2013-02-21 03:05:00,26.2,15.7,30.20,East,92,1.0,8.0,64,0.00,,,0.00,Wunderground v.1.15,2013-02-21 09:05:00,
2013-02-21 03:10:00,26.2,15.7,30.20,ESE,116,3.0,4.0,64,0.00,,,0.00,Wunderground v.1.15,2013-02-21 09:10:00,
2013-02-21 03:15:00,26.1,15.6,30.19,East,100,6.0,8.0,64,0.00,,,0.00,Wunderground v.1.15,2013-02-21 09:15:00,
2013-02-21 03:20:00,26.0,15.5,30.19,South,173,5.0,9.0,64,0.00,,,0.00,Wunderground v.1.15,2013-02-21 09:20:00,
2013-02-21 03:25:00,26.0,15.8,30.18,SE,126,7.0,11.0,65,0.00,,,0.00,Wunderground v.1.15,2013-02-21 09:25:00,
2013-02-21 03:30:00,25.9,15.4,30.19,ENE,73,4.0,8.0,64,0.00,,,0.00,Wunderground v.1.15,2013-02-21 09:30:00,
2013-02-21 03:35:00,25.9,15.7,30.20,ESE,111,5.0,8.0,65,0.00,,,0.00,Wunderground v.1.15,2013-02-21 09:35:00,
2013-02-21 03:40:00,26.0,15.5,30.20,ESE,119,4.0,8.0,64,0.00,,,0.00,Wunderground v.1.15,2013-02-21 09:40:00,
2013-02-21 03:45:00,26.0,15.5,30.20,ESE,115,7.0,8.0,64,0.00,,,0.00,Wunderground v.1.15,2013-02-21 09:45:00,
2013-02-21 03:50:00,26.0,15.5,30.20,East,90,8.0,10.0,64,0.00,,,0.00,Wunderground v.1.15,2013-02-21 09:50:00,
2013-02-21 03:55:00,25.9,15.4,30.19,ESE,120,9.0,13.0,64,0.00,,,0.00,Wunderground v.1.15,2013-02-21 09:55:00,
2013-02-21 04:00:00,25.9,15.4,30.19,ESE,109,8.0,9.0,64,0.00,,,0.00,Wunderground v.1.15,2013-02-21 10:00:00,
2013-02-21 04:06:00,25.8,14.9,30.19,ESE,112,4.0,11.0,63,0.00,,,0.00,Wunderground v.1.15,2013-02-21 10:06:00,
2013-02-21 04:11:00,25.8,15.3,30.19,ESE,115,7.0,9.0,64,0.00,,,0.00,Wunderground v.1.15,2013-02-21 10:11:00,
2013-02-21 04:16:00,25.7,15.2,30.20,SE,134,3.0,11.0,64,0.00,,,0.00,Wunderground v.1.15,2013-02-21 10:16:00,
2013-02-21 04:21:00,25.7,15.2,30.20,ESE,107,2.0,7.0,64,0.00,,,0.00,Wunderground v.1.15,2013-02-21 10:21:00,
2013-02-21 04:26:00,25.7,15.2,30.20,ESE,113,4.0,8.0,64,0.00,,,0.00,Wunderground v.1.15,2013-02-21 10:26:00,
2013-02-21 04:31:00,25.7,15.2,30.20,ESE,123,5.0,7.0,64,0.00,,,0.00,Wunderground v.1.15,2013-02-21 10:31:00,
2013-02-21 04:36:00,25.7,15.2,30.20,ESE,117,5.0,9.0,64,0.00,,,0.00,Wunderground v.1.15,2013-02-21 10:36:00,
2013-02-21 04:41:00,25.7,15.2,30.20,ESE,113,10.0,10.0,64,0.00,,,0.00,Wunderground v.1.15,2013-02-21 10:41:00,
2013-02-21 04:46:00,25.7,15.2,30.20,SSE,151,5.0,11.0,64,0.00,,,0.00,Wunderground v.1.15,2013-02-21 10:46:00,
2013-02-21 04:51:00,25.6,15.1,30.20,ESE,111,3.0,10.0,64,0.00,,,0.00,Wunderground v.1.15,2013-02-21 10:51:00,
2013-02-21 04:56:00,25.6,15.1,30.20,ESE,105,3.0,10.0,64,0.00,,,0.00,Wunderground v.1.15,2013-02-21 10:56:00,
2013-02-21 05:01:00,25.7,15.2,30.21,ESE,113,5.0,8.0,64,0.00,,,0.00,Wunderground v.1.15,2013-02-21 11:01:00,
2013-02-21 05:06:00,25.7,15.2,30.21,ESE,110,8.0,10.0,64,0.00,,,0.00,Wunderground v.1.15,2013-02-21 11:06:00,
2013-02-21 05:11:00,25.7,15.2,30.21,ESE,113,7.0,12.0,64,0.00,,,0.00,Wunderground v.1.15,2013-02-21 11:11:00,
2013-02-21 05:16:00,25.7,15.2,30.21,East,97,10.0,12.0,64,0.00,,,0.00,Wunderground v.1.15,2013-02-21 11:16:00,
2013-02-21 05:21:00,25.7,15.2,30.20,ESE,103,8.0,13.0,64,0.00,,,0.00,Wunderground v.1.15,2013-02-21 11:21:00,
2013-02-21 05:26:00,25.7,15.2,30.20,ESE,121,7.0,13.0,64,0.00,,,0.00,Wunderground v.1.15,2013-02-21 11:26:00,
2013-02-21 05:31:00,25.6,15.1,30.21,ESE,103,4.0,10.0,64,0.00,,,0.00,Wunderground v.1.15,2013-02-21 11:31:00,
2013-02-21 05:36:00,25.6,15.1,30.22,ESE,110,7.0,10.0,64,0.00,,,0.00,Wunderground v.1.15,2013-02-21 11:36:00,
2013-02-21 05:41:00,25.6,15.1,30.22,ESE,118,7.0,9.0,64,0.00,,,0.00,Wunderground v.1.15,2013-02-21 11:41:00,
2013-02-21 05:46:00,25.6,15.1,30.22,SE,126,2.0,9.0,64,0.00,,,0.00,Wunderground v.1.15,2013-02-21 11:46:00,
2013-02-21 05:51:00,25.6,15.1,30.22,East,101,8.0,10.0,64,0.00,,,0.00,Wunderground v.1.15,2013-02-21 11:51:00,
2013-02-21 05:56:00,25.6,15.1,30.22,SE,146,5.0,10.0,64,0.00,,,0.00,Wunderground v.1.15,2013-02-21 11:56:00,
2013-02-21 06:01:00,25.6,15.1,30.22,East,98,10.0,10.0,64,0.00,,,0.00,Wunderground v.1.15,2013-02-21 12:01:00,
2013-02-21 06:06:00,25.6,15.1,30.22,ESE,113,9.0,11.0,64,0.00,,,0.00,Wunderground v.1.15,2013-02-21 12:06:00,
2013-02-21 06:12:00,25.6,15.1,30.22,ESE,107,11.0,12.0,64,0.00,,,0.00,Wunderground v.1.15,2013-02-21 12:12:00,
2013-02-21 06:17:00,25.7,15.2,30.22,ESE,117,10.0,12.0,64,0.00,,,0.00,Wunderground v.1.15,2013-02-21 12:17:00,
2013-02-21 06:22:00,25.7,14.8,30.22,ESE,108,7.0,11.0,63,0.00,,,0.00,Wunderground v.1.15,2013-02-21 12:22:00,
2013-02-21 06:27:00,25.8,14.9,30.23,SE,132,4.0,11.0,63,0.00,,,0.00,Wunderground v.1.15,2013-02-21 12:27:00,
2013-02-21 06:32:00,26.0,15.1,30.23,SE,128,7.0,9.0,63,0.00,,,0.00,Wunderground v.1.15,2013-02-21 12:32:00,
2013-02-21 06:37:00,26.1,15.2,30.23,ESE,108,8.0,10.0,63,0.00,,,0.00,Wunderground v.1.15,2013-02-21 12:37:00,
2013-02-21 06:42:00,26.3,15.4,30.23,SE,132,5.0,11.0,63,0.00,,,0.00,Wunderground v.1.15,2013-02-21 12:42:00,
2013-02-21 06:47:00,26.5,15.6,30.23,SSE,150,7.0,11.0,63,0.00,,,0.00,Wunderground v.1.15,2013-02-21 12:47:00,
2013-02-21 06:52:00,26.7,15.8,30.22,ESE,113,11.0,13.0,63,0.00,,,0.00,Wunderground v.1.15,2013-02-21 12:52:00,
2013-02-21 06:57:00,26.9,15.6,30.22,ESE,121,11.0,13.0,62,0.00,,,0.00,Wunderground v.1.15,2013-02-21 12:57:00,
2013-02-21 07:02:00,27.0,15.7,30.22,ESE,112,13.0,14.0,62,0.00,,,0.00,Wunderground v.1.15,2013-02-21 13:02:00,
2013-02-21 07:07:00,26.9,15.6,30.22,ESE,105,5.0,14.0,62,0.00,,,0.00,Wunderground v.1.15,2013-02-21 13:07:00,
2013-02-21 07:12:00,27.0,15.7,30.22,SE,142,10.0,15.0,62,0.00,,,0.00,Wunderground v.1.15,2013-02-21 13:12:00,
2013-02-21 07:17:00,27.0,15.7,30.21,ESE,107,16.0,17.0,62,0.00,,,0.00,Wunderground v.1.15,2013-02-21 13:17:00,
2013-02-21 07:22:00,27.1,15.8,30.22,ESE,108,15.0,17.0,62,0.00,,,0.00,Wunderground v.1.15,2013-02-21 13:22:00,
2013-02-21 07:27:00,27.4,16.1,30.22,ESE,121,9.0,17.0,62,0.00,,,0.00,Wunderground v.1.15,2013-02-21 13:27:00,
2013-02-21 07:32:00,27.6,16.3,30.22,East,89,11.0,14.0,62,0.00,,,0.00,Wunderground v.1.15,2013-02-21 13:32:00,
2013-02-21 07:37:00,27.8,16.1,30.22,ESE,110,12.0,15.0,61,0.00,,,0.00,Wunderground v.1.15,2013-02-21 13:37:00,
2013-02-21 07:43:00,28.1,16.0,30.22,SE,134,6.0,14.0,60,0.00,,,0.00,Wunderground v.1.15,2013-02-21 13:43:00,
2013-02-21 07:48:00,28.3,16.6,30.22,ESE,113,9.0,14.0,61,0.00,,,0.00,Wunderground v.1.15,2013-02-21 13:48:00,
2013-02-21 07:53:00,28.5,16.4,30.22,ESE,108,5.0,13.0,60,0.00,,,0.00,Wunderground v.1.15,2013-02-21 13:53:00,
2013-02-21 07:58:00,28.8,16.3,30.22,ESE,111,13.0,14.0,59,0.00,,,0.00,Wunderground v.1.15,2013-02-21 13:58:00,
2013-02-21 08:03:00,29.1,16.5,30.23,SE,129,4.0,11.0,59,0.00,,,0.00,Wunderground v.1.15,2013-02-21 14:03:00,
2013-02-21 08:08:00,29.3,15.9,30.23,ENE,78,9.0,11.0,57,0.00,,,0.00,Wunderground v.1.15,2013-02-21 14:08:00,
2013-02-21 08:13:00,29.5,16.1,30.23,NNW,335,4.0,10.0,57,0.00,,,0.00,Wunderground v.1.15,2013-02-21 14:13:00,
2013-02-21 08:18:00,29.8,16.4,30.23,ESE,115,4.0,10.0,57,0.00,,,0.00,Wunderground v.1.15,2013-02-21 14:18:00,
2013-02-21 08:23:00,30.1,16.7,30.23,ESE,108,10.0,10.0,57,0.00,,,0.00,Wunderground v.1.15,2013-02-21 14:23:00,
2013-02-21 08:28:00,30.6,16.7,30.23,ESE,107,9.0,15.0,56,0.00,,,0.00,Wunderground v.1.15,2013-02-21 14:28:00,
2013-02-21 08:33:00,30.7,16.4,30.22,East,98,8.0,13.0,55,0.00,,,0.00,Wunderground v.1.15,2013-02-21 14:33:00,
2013-02-21 08:38:00,31.0,16.7,30.22,ESE,103,9.0,14.0,55,0.00,,,0.00,Wunderground v.1.15,2013-02-21 14:38:00,
2013-02-21 08:43:00,31.1,16.4,30.22,SE,142,7.0,14.0,54,0.00,,,0.00,Wunderground v.1.15,2013-02-21 14:43:00,
2013-02-21 08:48:00,31.4,16.2,30.21,ESE,117,13.0,15.0,53,0.00,,,0.00,Wunderground v.1.15,2013-02-21 14:48:00,
2013-02-21 08:53:00,31.7,16.5,30.21,SE,138,6.0,15.0,53,0.00,,,0.00,Wunderground v.1.15,2013-02-21 14:53:00,
2013-02-21 08:58:00,32.1,16.4,30.21,SE,129,9.0,15.0,52,0.00,,,0.00,Wunderground v.1.15,2013-02-21 14:58:00,
2013-02-21 09:03:00,32.4,16.3,30.22,East,95,9.0,13.0,51,0.00,,,0.00,Wunderground v.1.15,2013-02-21 15:03:00,
2013-02-21 09:08:00,32.7,16.5,30.21,ESE,111,12.0,13.0,51,0.00,,,0.00,Wunderground v.1.15,2013-02-21 15:08:00,
2013-02-21 09:13:00,32.9,16.7,30.22,ESE,109,3.0,13.0,51,0.00,,,0.00,Wunderground v.1.15,2013-02-21 15:13:00,
2013-02-21 09:18:00,33.5,16.8,30.23,ESE,113,2.0,13.0,50,0.00,,,0.00,Wunderground v.1.15,2013-02-21 15:18:00,
2013-02-21 09:23:00,33.8,16.6,30.23,East,96,5.0,10.0,49,0.00,,,0.00,Wunderground v.1.15,2013-02-21 15:23:00,
2013-02-21 09:28:00,34.0,16.8,30.22,SE,127,1.0,10.0,49,0.00,,,0.00,Wunderground v.1.15,2013-02-21 15:28:00,
2013-02-21 09:34:00,34.3,16.6,30.22,ESE,109,3.0,10.0,48,0.00,,,0.00,Wunderground v.1.15,2013-02-21 15:34:00,
2013-02-21 09:39:00,35.0,17.3,30.21,ESE,123,5.0,10.0,48,0.00,,,0.00,Wunderground v.1.15,2013-02-21 15:39:00,
2013-02-21 09:44:00,35.3,17.5,30.20,North,5,2.0,7.0,48,0.00,,,0.00,Wunderground v.1.15,2013-02-21 15:44:00,
2013-02-21 09:49:00,35.9,17.6,30.20,ESE,115,9.0,10.0,47,0.00,,,0.00,Wunderground v.1.15,2013-02-21 15:49:00,
2013-02-21 09:54:00,36.4,17.1,30.20,NNE,20,1.0,9.0,45,0.00,,,0.00,Wunderground v.1.15,2013-02-21 15:54:00,
2013-02-21 09:59:00,36.6,17.2,30.21,South,175,4.0,9.0,45,0.00,,,0.00,Wunderground v.1.15,2013-02-21 15:59:00,
2013-02-21 10:04:00,36.9,17.0,30.20,ESE,116,1.0,13.0,44,0.00,,,0.00,Wunderground v.1.15,2013-02-21 16:04:00,
2013-02-21 10:09:00,37.3,17.4,30.20,ESE,115,5.0,13.0,44,0.00,,,0.00,Wunderground v.1.15,2013-02-21 16:09:00,
2013-02-21 10:14:00,38.0,17.5,30.20,ESE,102,4.0,9.0,43,0.00,,,0.00,Wunderground v.1.15,2013-02-21 16:14:00,
2013-02-21 10:19:00,38.9,17.2,30.20,ESE,104,0.0,9.0,41,0.00,,,0.00,Wunderground v.1.15,2013-02-21 16:19:00,
2013-02-21 10:24:00,39.8,18.5,30.19,East,80,2.0,8.0,42,0.00,,,0.00,Wunderground v.1.15,2013-02-21 16:24:00,
2013-02-21 10:30:00,40.2,17.8,30.19,SE,132,5.0,10.0,40,0.00,,,0.00,Wunderground v.1.15,2013-02-21 16:30:00,
2013-02-21 10:35:00,40.7,17.6,30.19,ESE,112,2.0,8.0,39,0.00,,,0.00,Wunderground v.1.15,2013-02-21 16:35:00,
2013-02-21 10:40:00,41.1,16.1,30.19,SSW,211,1.0,9.0,36,0.00,,,0.00,Wunderground v.1.15,2013-02-21 16:40:00,
2013-02-21 10:45:00,41.2,16.9,30.18,NE,49,4.0,7.0,37,0.00,,,0.00,Wunderground v.1.15,2013-02-21 16:45:00,
2013-02-21 10:50:00,41.5,17.1,30.18,ESE,108,3.0,3.0,37,0.00,,,0.00,Wunderground v.1.15,2013-02-21 16:50:00,
2013-02-21 10:55:00,41.5,14.5,30.18,ESE,113,8.0,9.0,33,0.00,,,0.00,Wunderground v.1.15,2013-02-21 16:55:00,
2013-02-21 11:00:00,41.8,16.1,30.18,ESE,113,3.0,5.0,35,0.00,,,0.00,Wunderground v.1.15,2013-02-21 17:00:00,
2013-02-21 11:05:00,42.3,15.9,30.18,SW,226,1.0,5.0,34,0.00,,,0.00,Wunderground v.1.15,2013-02-21 17:05:00,
2013-02-21 11:10:00,43.0,15.8,30.18,ESE,113,2.0,3.0,33,0.00,,,0.00,Wunderground v.1.15,2013-02-21 17:10:00,
2013-02-21 11:15:00,43.3,16.8,30.17,SE,134,2.0,6.0,34,0.00,,,0.00,Wunderground v.1.15,2013-02-21 17:15:00,
2013-02-21 11:20:00,43.6,17.7,30.17,SSE,154,5.0,5.0,35,0.00,,,0.00,Wunderground v.1.15,2013-02-21 17:20:00,
2013-02-21 11:25:00,43.8,17.9,30.17,ENE,65,0.0,7.0,35,0.00,,,0.00,Wunderground v.1.15,2013-02-21 17:25:00,
2013-02-21 11:30:00,44.1,17.5,30.17,SE,124,1.0,4.0,34,0.00,,,0.00,Wunderground v.1.15,2013-02-21 17:30:00,
2013-02-21 11:35:00,44.7,17.3,30.17,ESE,123,5.0,6.0,33,0.00,,,0.00,Wunderground v.1.15,2013-02-21 17:35:00,
2013-02-21 11:40:00,45.0,16.9,30.17,ESE,119,3.0,3.0,32,0.00,,,0.00,Wunderground v.1.15,2013-02-21 17:40:00,
2013-02-21 11:45:00,45.1,15.5,30.17,NE,51,2.0,7.0,30,0.00,,,0.00,Wunderground v.1.15,2013-02-21 17:45:00,
2013-02-21 11:50:00,45.2,16.3,30.16,ESE,119,4.0,4.0,31,0.00,,,0.00,Wunderground v.1.15,2013-02-21 17:50:00,
2013-02-21 11:55:00,45.6,15.1,30.16,SE,137,1.0,5.0,29,0.00,,,0.00,Wunderground v.1.15,2013-02-21 17:55:00,
2013-02-21 12:00:00,45.9,14.6,30.15,ESE,105,0.0,2.0,28,0.00,,,0.00,Wunderground v.1.15,2013-02-21 18:00:00,
2013-02-21 12:05:00,46.1,14.8,30.15,ESE,115,5.0,7.0,28,0.00,,,0.00,Wunderground v.1.15,2013-02-21 18:05:00,
2013-02-21 12:10:00,46.1,13.9,30.14,NE,49,1.0,5.0,27,0.00,,,0.00,Wunderground v.1.15,2013-02-21 18:10:00,
2013-02-21 12:15:00,46.2,14.8,30.14,NE,42,2.0,7.0,28,0.00,,,0.00,Wunderground v.1.15,2013-02-21 18:15:00,
2013-02-21 12:20:00,46.3,16.5,30.14,ESE,115,4.0,5.0,30,0.00,,,0.00,Wunderground v.1.15,2013-02-21 18:20:00,
2013-02-21 12:25:00,46.7,15.3,30.14,ESE,108,3.0,10.0,28,0.00,,,0.00,Wunderground v.1.15,2013-02-21 18:25:00,
2013-02-21 12:30:00,46.9,14.6,30.14,East,94,2.0,4.0,27,0.00,,,0.00,Wunderground v.1.15,2013-02-21 18:30:00,
2013-02-21 12:35:00,47.4,15.9,30.14,ESE,109,3.0,9.0,28,0.00,,,0.00,Wunderground v.1.15,2013-02-21 18:35:00,
2013-02-21 12:40:00,48.0,15.6,30.14,ESE,121,2.0,2.0,27,0.00,,,0.00,Wunderground v.1.15,2013-02-21 18:40:00,
2013-02-21 12:45:00,48.6,16.1,30.13,East,101,1.0,7.0,27,0.00,,,0.00,Wunderground v.1.15,2013-02-21 18:45:00,
2013-02-21 12:50:00,49.0,15.6,30.13,ESE,119,2.0,4.0,26,0.00,,,0.00,Wunderground v.1.15,2013-02-21 18:50:00,
2013-02-21 12:55:00,49.3,16.7,30.14,SE,142,1.0,8.0,27,0.00,,,0.00,Wunderground v.1.15,2013-02-21 18:55:00,
2013-02-21 13:00:00,49.9,15.4,30.14,ESE,112,8.0,8.0,25,0.00,,,0.00,Wunderground v.1.15,2013-02-21 19:00:00,
2013-02-21 13:05:00,50.1,16.5,30.13,SE,142,4.0,8.0,26,0.00,,,0.00,Wunderground v.1.15,2013-02-21 19:05:00,
2013-02-21 13:10:00,49.8,16.2,30.13,ESE,123,1.0,5.0,26,0.00,,,0.00,Wunderground v.1.15,2013-02-21 19:10:00,
2013-02-21 13:16:00,49.4,16.8,30.13,ENE,59,0.0,6.0,27,0.00,,,0.00,Wunderground v.1.15,2013-02-21 19:16:00,
2013-02-21 13:21:00,49.0,17.3,30.12,SSE,155,1.0,3.0,28,0.00,,,0.00,Wunderground v.1.15,2013-02-21 19:21:00,
2013-02-21 13:26:00,48.7,17.8,30.13,South,171,0.0,6.0,29,0.00,,,0.00,Wunderground v.1.15,2013-02-21 19:26:00,
2013-02-21 13:31:00,48.7,17.8,30.12,ESE,105,5.0,8.0,29,0.00,,,0.00,Wunderground v.1.15,2013-02-21 19:31:00,
2013-02-21 13:36:00,48.6,19.3,30.11,ESE,121,3.0,8.0,31,0.00,,,0.00,Wunderground v.1.15,2013-02-21 19:36:00,
2013-02-21 14:36:00,45.0,21.5,30.06,ENE,71,1.0,10.0,39,0.00,,,0.00,Wunderground v.1.15,2013-02-21 20:36:00,
2013-02-21 14:41:00,44.9,22.0,30.05,ESE,105,7.0,10.0,40,0.00,,,0.00,Wunderground v.1.15,2013-02-21 20:41:00,
2013-02-21 14:47:00,44.9,22.6,30.05,SSW,212,3.0,10.0,41,0.00,,,0.00,Wunderground v.1.15,2013-02-21 20:47:00,
2013-02-21 14:52:00,44.9,22.6,30.03,ESE,114,8.0,8.0,41,0.00,,,0.00,Wunderground v.1.15,2013-02-21 20:52:00,
2013-02-21 14:57:00,44.5,22.2,30.02,SSE,154,8.0,15.0,41,0.00,,,0.00,Wunderground v.1.15,2013-02-21 20:57:00,
2013-02-21 15:02:00,44.2,22.0,30.01,ESE,117,5.0,12.0,41,0.00,,,0.00,Wunderground v.1.15,2013-02-21 21:02:00,
2013-02-21 15:07:00,44.0,22.4,30.00,ENE,57,2.0,13.0,42,0.00,,,0.00,Wunderground v.1.15,2013-02-21 21:07:00,
2013-02-21 15:12:00,43.7,22.6,30.00,NNW,330,5.0,12.0,43,0.00,,,0.00,Wunderground v.1.15,2013-02-21 21:12:00,
2013-02-21 15:17:00,43.6,22.5,30.00,SE,139,9.0,12.0,43,0.00,,,0.00,Wunderground v.1.15,2013-02-21 21:17:00,
2013-02-21 15:22:00,43.4,22.4,30.00,East,88,6.0,11.0,43,0.00,,,0.00,Wunderground v.1.15,2013-02-21 21:22:00,
2013-02-21 15:27:00,43.3,22.3,30.01,NNE,18,4.0,12.0,43,0.00,,,0.00,Wunderground v.1.15,2013-02-21 21:27:00,
2013-02-21 15:32:00,43.3,22.3,30.01,NE,34,3.0,9.0,43,0.00,,,0.00,Wunderground v.1.15,2013-02-21 21:32:00,
2013-02-21 15:37:00,43.2,22.2,30.01,South,178,3.0,9.0,43,0.00,,,0.00,Wunderground v.1.15,2013-02-21 21:37:00,
2013-02-21 15:42:00,43.2,22.2,30.00,South,182,3.0,8.0,43,0.00,,,0.00,Wunderground v.1.15,2013-02-21 21:42:00,
2013-02-21 15:47:00,43.2,22.2,30.00,WSW,257,4.0,8.0,43,0.00,,,0.00,Wunderground v.1.15,2013-02-21 21:47:00,
2013-02-21 15:52:00,43.1,22.6,30.00,ESE,106,2.0,9.0,44,0.00,,,0.00,Wunderground v.1.15,2013-02-21 21:52:00,
2013-02-21 15:57:00,43.1,22.6,30.01,SSW,211,4.0,10.0,44,0.00,,,0.00,Wunderground v.1.15,2013-02-21 21:57:00,
2013-02-21 16:02:00,43.0,22.5,30.01,ESE,109,9.0,9.0,44,0.00,,,0.00,Wunderground v.1.15,2013-02-21 22:02:00,
2013-02-21 16:08:00,43.0,22.5,29.99,ESE,115,5.0,10.0,44,0.00,,,0.00,Wunderground v.1.15,2013-02-21 22:08:00,
2013-02-21 16:40:00,42.2,24.9,30.04,ESE,103,1.0,3.0,50,0.00,,,0.00,Wunderground v.1.15,2013-02-21 22:40:00,
2013-02-21 16:45:00,41.9,26.4,30.07,SW,220,4.0,4.0,54,0.00,,,0.00,Wunderground v.1.15,2013-02-21 22:45:00,
2013-02-21 16:50:00,41.4,28.5,30.08,SE,128,4.0,5.0,60,0.00,,,0.01,Wunderground v.1.15,2013-02-21 22:50:00,